[[{"header":{"parameterUnit":"m.s-1","parameterCategory":1,"la1":30.2992,"la2":30.254,"lo1":-89.0895,"lo2":-89.0443,"dy":0.0025,"dx":0.0025,"nx":19,"ny":19,"refTime":"2026-04-15T09:00:00:Z","depth":0,"parameterNumber":2,"parameterNumberName":"U-component_of_WINDS"},"data":[0,0,0,0.2403,0.2405,0.2534,0.2534,0.2681,0.2682,0,0,0,0,0,0,0,0,0,0,0,0.2352,0.2353,0.2403,0.2406,0.2533,0.2534,0.268,0.2682,0,0,0,0,0,0,0,0,0,0,0,0.2352,0.2353,0.2354,0.2406,0.2533,0.2534,0.268,0.259,0,0,0,0,0,0,0,0,0,0,0.2469,0.241,0.2353,0.2354,0.2407,0.2533,0.2534,0.2586,0.2596,0.2614,0,0.2626,0,0.2656,0.269,0.2691,0,0,0,0.2415,0.2401,0.2447,0.2354,0.2408,0.2533,0.2479,0.2592,0.2602,0.2627,0.2628,0.2634,0.2658,0.2691,0.2692,0.2764,0.2764,0,0,0.2408,0.2369,0.2439,0.2453,0.2431,0.2474,0.2482,0.2599,0.2598,0.2629,0.2638,0.2661,0.2692,0.2693,0.2764,0.2764,0,0,0,0.2381,0.2364,0.2407,0.2447,0.2471,0.2478,0.2487,0.2593,0.261,0.264,0.2663,0.2693,0.2694,0.2764,0.2764,0.272,0,0,0,0.2378,0.2348,0.2403,0.2381,0.2469,0.2533,0.2478,0.2602,0.2617,0.2662,0.2693,0.2695,0.2764,0.2764,0.2722,0.2706,0,0,0,0.2348,0.2345,0.2359,0.2378,0.2432,0.2532,0.2557,0.2606,0.263,0.2691,0.2696,0.2765,0.2764,0.2723,0.2708,0.2714,0,0,0,0.2306,0.2318,0.2358,0.238,0.2431,0.2503,0.2556,0.2613,0.266,0.2693,0.2764,0.2764,0.2723,0.271,0.2715,0.2712,0.2706,0,0,0.2299,0.2316,0.2332,0.2371,0.2427,0.2487,0.2537,0.2618,0.266,0.2727,0.273,0.2721,0.2708,0.2714,0.269,0.2685,0,0,0,0.2317,0.2328,0.2351,0.2393,0.2454,0.2506,0.2583,0.2613,0.2672,0.2686,0.2726,0.2719,0.2724,0.2725,0.2721,0.2728,0.2762,0.2762,0.2762,0.2251,0.2304,0.2335,0.2403,0.2444,0.2523,0.2561,0.2616,0.2658,0.2666,0.2687,0.2665,0.2664,0.2661,0.2668,0.2689,0.2689,0.2688,0.2688,0.2246,0.2271,0.2326,0.2376,0.2432,0.2476,0.2553,0.2581,0.2631,0.2654,0.2661,0.2682,0.2654,0.2663,0.2686,0.2686,0.2686,0.2687,0.2687,0.2209,0.223,0.2266,0.2333,0.238,0.245,0.2495,0.2545,0.2592,0.2599,0.2627,0.2628,0.2636,0.2609,0.2609,0.2609,0.2609,0.2609,0.2609,0.2156,0.2198,0.2229,0.2296,0.233,0.2382,0.2463,0.2499,0.2552,0.2585,0.2585,0.2627,0.2641,0.2644,0.2608,0.2608,0.2608,0.2608,0.2608,0.2131,0.2145,0.2193,0.2227,0.2311,0.2354,0.2418,0.2487,0.2524,0.2545,0.2586,0.2588,0.2609,0.2612,0.2615,0.2573,0.2573,0.2573,0.2573,0.21,0.2116,0.2177,0.2229,0.2286,0.2348,0.2403,0.2466,0.2534,0.2561,0.2574,0.2582,0.2584,0.2604,0.2608,0.2611,0.2569,0.2569,0.2569,0.2089,0.2112,0.2147,0.2214,0.2283,0.2342,0.2395,0.2454,0.2534,0.257,0.2583,0.2583,0.2597,0.2598,0.2633,0.2638,0.2646,0,0]},{"header":{"parameterUnit":"m.s-1","parameterCategory":1,"la1":30.2992,"la2":30.254,"lo1":-89.0895,"lo2":-89.0443,"dy":0.0025,"dx":0.0025,"nx":19,"ny":19,"refTime":"2026-04-15T09:00:00:Z","depth":0,"parameterNumber":3,"parameterNumberName":"V-component_of_WINDS"},"data":[0,0,0,3.59,3.5902,3.5999,3.6,3.6104,3.6105,0,0,0,0,0,0,0,0,0,0,0,3.586,3.586,3.59,3.5902,3.5999,3.6,3.6104,3.6105,0,0,0,0,0,0,0,0,0,0,0,3.586,3.586,3.5861,3.5902,3.5999,3.6,3.6104,3.6037,0,0,0,0,0,0,0,0,0,0,3.5946,3.5899,3.586,3.5861,3.5903,3.5999,3.6,3.6034,3.6041,3.6052,0,3.6059,0,3.6084,3.6111,3.6111,0,0,0,3.591,3.5893,3.5929,3.5861,3.5904,3.5999,3.5958,3.6039,3.6047,3.6061,3.6061,3.6065,3.6086,3.6111,3.6112,3.615,3.615,0,0,3.5905,3.5871,3.5924,3.5934,3.5919,3.5954,3.596,3.6044,3.6041,3.6061,3.6068,3.6087,3.6112,3.6113,3.615,3.615,0,0,0,3.5884,3.5867,3.5902,3.5929,3.5948,3.5957,3.5964,3.6037,3.6051,3.6069,3.6089,3.6112,3.6114,3.6151,3.615,3.6109,0,0,0,3.5881,3.5855,3.5899,3.588,3.5946,3.5994,3.5955,3.6045,3.6056,3.6088,3.6113,3.6114,3.6151,3.615,3.6111,3.6095,0,0,0,3.5857,3.5852,3.5863,3.5878,3.5919,3.5993,3.6013,3.6049,3.6067,3.6111,3.6115,3.6151,3.615,3.6112,3.6097,3.6096,0,0,0,3.5822,3.5823,3.5862,3.587,3.5917,3.5968,3.6013,3.6051,3.6084,3.6113,3.6151,3.615,3.6113,3.6099,3.6097,3.6088,3.6082,0,0,3.5805,3.582,3.5828,3.5865,3.59,3.5955,3.5984,3.6045,3.6079,3.6124,3.6126,3.611,3.6097,3.6096,3.6056,3.605,0,0,0,3.5811,3.5816,3.5833,3.5863,3.5911,3.5951,3.6011,3.6034,3.6075,3.6096,3.611,3.6104,3.6104,3.6101,3.6097,3.61,3.6148,3.6148,3.6148,3.5736,3.5782,3.5799,3.5856,3.5885,3.5949,3.5977,3.6018,3.6054,3.6057,3.607,3.604,3.6036,3.6033,3.6035,3.6069,3.6069,3.6069,3.6069,3.5715,3.573,3.578,3.5814,3.5862,3.589,3.5952,3.5977,3.601,3.6033,3.6036,3.6058,3.6025,3.603,3.6066,3.6067,3.6067,3.6067,3.6067,3.5671,3.5686,3.5716,3.5767,3.58,3.5859,3.5889,3.5931,3.5971,3.5974,3.5993,3.5994,3.6,3.598,3.598,3.598,3.598,3.598,3.598,3.5614,3.5649,3.567,3.5723,3.5749,3.5789,3.5855,3.5881,3.5922,3.595,3.5951,3.5986,3.6014,3.602,3.5979,3.5979,3.5979,3.5979,3.5979,3.5574,3.5591,3.5623,3.565,3.5717,3.5748,3.5803,3.5854,3.5883,3.5896,3.5933,3.5946,3.5964,3.5968,3.5973,3.5923,3.5923,3.5923,3.5923,3.5537,3.5552,3.5596,3.5636,3.568,3.5733,3.5769,3.5821,3.5876,3.5897,3.591,3.5921,3.5923,3.594,3.5945,3.595,3.5895,3.5895,3.5895,3.5516,3.5537,3.5559,3.5615,3.5671,3.5718,3.5753,3.5797,3.5863,3.5895,3.5914,3.5915,3.5933,3.5936,3.5966,3.5973,3.5984,0,0]}]]